Location: Newark
(21.1200°N, 73.4000°E)
Time: 21:44:09
(UTC+00:00)

Explorer 11/Cluster Stage 4 - Pass Details

Date: 27 January 2020
Orbit: 467 x 1259 km, 28.8° (Epoch: 19 February)

Event Time Altitude Azimuth Distance (km) Brightness Sun altitude
Rises 09:51:32 0° 279° (W) 4,192 10.7 35.5°
Reaches altitude 10° 09:54:38 10° 284° (WNW) 3,231 10.2 35.0°
Maximum altitude 10:02:33 48° 357° (N) 1,530 8.2 33.7°
Drops below altitude 10° 10:09:46 10° 70° (ENE) 2,949 9.1 32.4°
Sets 10:12:28 0° 76° (ENE) 3,803 9.6 31.9°
